This is the latest recevied weather packets stored in our database for station/object KC3BHK-2. If no packets are shown the sender has not sent any weather packets the latest 10 day(s).
| Time | Temp. | Humidity | Pressure | Rain* | Wind** | Luminosity | Snow |
|---|---|---|---|---|---|---|---|
| 1788584377 | 21.67° C | - | - | 0 mm | 0 m/s | - | - |
| 1788584071 | 21.67° C | - | - | 0 mm | 0 m/s | - | - |
| 1788583766 | 21.67° C | - | - | 0 mm | 0 m/s | - | - |
| 1788583461 | 22.22° C | - | - | 0 mm | 0 m/s | - | - |
| 1788583156 | 21.67° C | - | - | 0 mm | 0.45 m/s, 169° | - | - |
| 1788582851 | 22.78° C | - | - | 0 mm | 0 m/s | - | - |
| 1788582543 | 22.78° C | - | - | 0 mm | 0.45 m/s, 105° | - | - |
| 1788582239 | 22.78° C | - | - | 0 mm | 1.34 m/s, 118° | - | - |
| 1788581934 | 22.78° C | - | - | 0 mm | 0 m/s | - | - |
| 1788581323 | 22.78° C | - | - | 0 mm | 0.45 m/s, 76° | - | - |
| 1788581018 | 22.78° C | - | - | 0 mm | 0 m/s | - | - |
| 1788580710 | 22.78° C | - | - | 0 mm | 0.89 m/s, 125° | - | - |
| 1788580405 | 23.33° C | - | - | 0 mm | 0.89 m/s, 150° | - | - |
| 1788580101 | 22.78° C | - | - | 0 mm | 1.34 m/s, 115° | - | - |
| 1788579796 | 23.33° C | - | - | 0 mm | 1.34 m/s, 132° | - | - |
| 1788579491 | 22.22° C | - | - | 0 mm | 1.79 m/s, 131° | - | - |
| 1788579186 | 22.22° C | - | - | 0 mm | 1.79 m/s, 122° | - | - |
| 1788578878 | 22.78° C | - | - | 0 mm | 0.89 m/s, 121° | - | - |
| 1788578574 | 22.22° C | - | - | 0 mm | 0.89 m/s, 105° | - | - |
| 1788578269 | 22.22° C | - | - | 0 mm | 0 m/s | - | - |
| 1788577964 | 22.22° C | - | - | 0 mm | 0 m/s | - | - |
| 1788577658 | 22.78° C | - | - | 0 mm | 0 m/s | - | - |
| 1788577353 | 22.78° C | - | - | 0 mm | 0 m/s | - | - |
| 1788577046 | 22.22° C | - | - | 0 mm | 0.89 m/s, 180° | - | - |
| 1788576741 | 22.22° C | - | - | 0 mm | 1.34 m/s, 207° | - | - |
* Rain latest hour (hover to see other rain measurements)
** Current wind speed in m/s (hover to see current wind gust speed)